This is the latest recevied weather packets stored in our database for station/object KE4EST. If no packets are shown the sender has not sent any weather packets the latest 10 day(s).
| Time | Temp. | Humidity | Pressure | Rain* | Wind** | Luminosity | Snow |
|---|---|---|---|---|---|---|---|
| 1778196996 | 15° C | 79% | 1013.8 hPa | 0 mm | - | 19 W/m² | - |
| 1778196694 | 15° C | 78% | 1013.7 hPa | 0 mm | - | 25 W/m² | - |
| 1778196390 | 15° C | 79% | 1013.8 hPa | 0 mm | - | 22 W/m² | - |
| 1778196088 | 15° C | 80% | 1013.8 hPa | 0 mm | - | 24 W/m² | - |
| 1778195784 | 15° C | 80% | 1013.8 hPa | 0 mm | - | 40 W/m² | - |
| 1778195481 | 15° C | 78% | 1013.7 hPa | 0 mm | - | 37 W/m² | - |
| 1778195177 | 15° C | 79% | 1013.6 hPa | 0 mm | - | 28 W/m² | - |
| 1778194875 | 15.56° C | 77% | 1013.7 hPa | 0 mm | - | 24 W/m² | - |
| 1778194569 | 15.56° C | 76% | 1013.9 hPa | 0 mm | - | 45 W/m² | - |
| 1778194266 | 15.56° C | 76% | 1013.8 hPa | 0 mm | - | 54 W/m² | - |
| 1778193962 | 15° C | 76% | 1013.9 hPa | 0 mm | - | 44 W/m² | - |
| 1778193659 | 15° C | 77% | 1013.7 hPa | 0 mm | - | 39 W/m² | - |
| 1778193355 | 15° C | 78% | 1013.9 hPa | 0 mm | - | 30 W/m² | - |
| 1778193052 | 15° C | 77% | 1013.9 hPa | 0 mm | - | 28 W/m² | - |
| 1778192749 | 15° C | 77% | 1013.8 hPa | 0 mm | - | 30 W/m² | - |
| 1778192445 | 15° C | 78% | 1013.9 hPa | 0 mm | - | 43 W/m² | - |
| 1778192141 | 15° C | 77% | 1013.9 hPa | 0 mm | - | 56 W/m² | - |
| 1778191839 | 15° C | 77% | 1014.1 hPa | 0 mm | - | 47 W/m² | - |
| 1778191536 | 15° C | 81% | 1013.9 hPa | 0 mm | - | 42 W/m² | - |
| 1778191233 | 15° C | 76% | 1013.6 hPa | 0 mm | - | 145 W/m² | - |
| 1778190929 | 15.56° C | 75% | 1013.6 hPa | 0 mm | - | 43 W/m² | - |
| 1778190627 | 16.11° C | 77% | 1013.8 hPa | 0 mm | - | 39 W/m² | - |
| 1778190324 | 16.11° C | 74% | 1013.5 hPa | 0 mm | - | 133 W/m² | - |
| 1778190020 | 16.11° C | 74% | 1013.5 hPa | 0 mm | - | 76 W/m² | - |
| 1778189716 | 16.11° C | 73% | 1013.4 hPa | 0 mm | - | 240 W/m² | - |
* Rain latest hour (hover to see other rain measurements)
** Current wind speed in m/s (hover to see current wind gust speed)